GW7302 Weather Reports


Display with metric or nautical units.
time (UTC)temp
F
wind
direction
speed
MPH
gust
MPH
rain 1hr
in
rain 24hr
in
rain mn
in
humidity
%
barometer
mb
20260510054518 47 46 0.0 0.0 0.00 0.05 0.00 95 1012.2
20260510053016 47 46 0.0 0.0 0.00 0.05 0.00 95 1012.4
20260510051516 46 46 0.0 0.0 0.00 0.05 0.00 95 1012.5
20260510050016 46 46 0.0 0.0 0.00 0.05 0.00 94 1012.4
20260510044515 46 46 0.0 0.0 0.00 0.05 0.00 94 1012.4
20260510043016 46 46 0.0 0.0 0.00 0.05 0.00 94 1012.5
20260510041517 46 46 0.0 0.0 0.00 0.05 0.00 94 1012.5
20260510040014 47 46 0.0 0.0 0.00 0.05 0.00 94 1012.7
20260510034512 47 46 0.0 0.0 0.00 0.05 0.05 94 1012.7
20260510033012 47 46 0.0 0.0 0.00 0.05 0.05 94 1012.6
20260510031514 48 46 0.0 0.0 0.00 0.05 0.05 94 1012.7
20260510030016 48 46 0.0 0.0 0.00 0.05 0.05 94 1012.5
20260510024522 48 46 0.0 0.0 0.00 0.05 0.05 93 1012.5
20260510023016 49 46 0.0 0.0 0.00 0.05 0.05 93 1012.5
20260510021516 50 46 0.0 0.0 0.00 0.05 0.05 93 1012.3
20260510020020 50 46 0.0 0.0 0.00 0.05 0.05 93 1012.3
20260510014521 50 46 0.0 0.0 0.00 0.05 0.05 92 1012.1
20260510013020 51 46 0.0 0.0 0.00 0.05 0.05 92 1012.2
20260510011522 52 96 0.0 2.0 0.00 0.05 0.05 91 1012.1
20260510010001 55 96 0.0 3.0 0.00 0.05 0.05 91 1011.8
20260510004504 55 92 0.0 2.0 0.00 0.05 0.05 91 1011.7
20260510003004 55 28 1.0 2.0 0.00 0.05 0.05 92 1011.5
20260510001504 55 34 0.0 2.0 0.00 0.05 0.05 89 1011.4
20260510000004 57 93 0.0 3.0 0.00 0.05 0.05 88 1011.2
20260509234507 58 139 1.0 4.0 0.00 0.05 0.05 86 1011.3
20260509233004 59 85 0.0 3.0 0.00 0.05 0.05 85 1011.3
20260509231508 60 152 0.0 3.0 0.00 0.05 0.05 84 1011.4
20260509230008 60 139 1.0 4.0 0.00 0.05 0.05 83 1011.3
20260509224512 60 171 1.0 3.0 0.00 0.05 0.05 82 1011.1
20260509223016 60 146 1.0 3.0 0.00 0.05 0.05 82 1011.1
20260509221512 60 78 0.0 2.0 0.00 0.05 0.05 81 1011.2
20260509220017 59 109 0.0 2.0 0.00 0.05 0.05 84 1011.3
20260509214515 59 112 2.0 2.0 0.00 0.05 0.05 86 1011.2
20260509213016 59 130 2.0 4.0 0.00 0.05 0.05 84 1011.1
20260509211519 60 360 0.0 2.0 0.00 0.05 0.05 81 1011.3
20260509210020 60 277 1.0 2.0 0.00 0.05 0.05 78 1011.4
20260509204521 60 311 1.0 2.0 0.00 0.05 0.05 81 1011.5
20260509203024 59 129 0.0 1.0 0.00 0.05 0.05 83 1011.5
20260509201524 58 142 0.0 2.0 0.01 0.05 0.05 84 1011.7
20260509200024 57 109 0.0 2.0 0.01 0.05 0.05 85 1011.8
20260509194525 57 62 1.0 2.0 0.01 0.05 0.05 87 1011.9
20260509193023 57 114 0.0 2.0 0.01 0.05 0.05 86 1012.1
20260509191525 57 100 0.0 2.0 0.01 0.04 0.04 84 1012.2
20260509190028 57 343 0.0 2.0 0.01 0.04 0.04 86 1012.7
20260509184536 57 334 0.0 2.0 0.01 0.04 0.04 85 1012.8
20260509183026 57 338 0.0 2.0 0.02 0.04 0.04 85 1013.0
20260509181507 57 302 1.0 3.0 0.01 0.03 0.03 84 1013.1
20260509180009 57 275 0.0 2.0 0.01 0.03 0.03 84 1013.2
20260509174508 57 309 0.0 4.0 0.01 0.03 0.03 81 1013.1
20260509173012 58 227 0.0 9.0 0.00 0.02 0.02 79 1013.1
20260509171512 58 273 1.0 5.0 0.00 0.02 0.02 79 1013.2
20260509170014 58 207 1.0 3.0 0.01 0.02 0.02 82 1013.1
20260509164515 57 180 1.0 2.0 0.02 0.02 0.02 84 1012.8
20260509163020 58 217 0.0 2.0 0.02 0.02 0.02 84 1012.8
20260509161518 58 265 1.0 3.0 0.02 0.02 0.02 82 1013.1
20260509160003 58 236 2.0 6.0 0.01 0.01 0.01 79 1013.3
20260509154502 59 236 3.0 8.0 0.00 0.00 0.00 79 1013.5
20260509153003 59 216 1.0 4.0 0.00 0.00 0.00 79 1013.6
20260509151503 59 211 0.0 0.0 0.00 0.00 0.00 77 1013.7
20260509150004 59 227 0.0 4.0 0.00 0.00 0.00 77 1013.7
20260509144502 59 233 1.0 2.0 0.00 0.00 0.00 77 1013.4
20260509143006 59 105 0.0 2.0 0.00 0.00 0.00 78 1013.1
20260509141503 58 179 0.0 2.0 0.00 0.00 0.00 77 1013.2
20260509140006 58 155 0.0 2.0 0.00 0.00 0.00 77 1013.1
20260509134505 57 84 1.0 3.0 0.00 0.00 0.00 77 1013.0
20260509133008 57 99 2.0 4.0 0.00 0.00 0.00 77 1013.0
20260509131510 57 94 1.0 2.0 0.00 0.00 0.00 77 1013.0
20260509130011 56 98 1.0 3.0 0.00 0.00 0.00 79 1012.9
20260509124510 56 101 2.0 3.0 0.00 0.00 0.00 80 1013.0
20260509123012 55 94 0.0 2.0 0.00 0.00 0.00 84 1013.0
20260509121515 54 81 0.0 2.0 0.00 0.00 0.00 86 1013.1
20260509120014 53 81 0.0 0.0 0.00 0.00 0.00 86 1013.2
20260509114517 52 81 0.0 0.0 0.00 0.00 0.00 88 1013.1
20260509113019 52 81 0.0 0.0 0.00 0.00 0.00 88 1013.1
20260509111534 51 65 0.0 1.0 0.00 0.00 0.00 88 1013.0
20260509110020 51 60 0.0 0.0 0.00 0.00 0.00 88 1012.9
20260509104528 50 72 1.0 2.0 0.00 0.00 0.00 88 1012.8
20260509103021 50 67 0.0 2.0 0.00 0.00 0.00 88 1012.7
20260509101529 50 67 0.0 2.0 0.00 0.00 0.00 88 1012.6
20260509100023 50 67 0.0 2.0 0.00 0.00 0.00 88 1012.4
20260509094528 50 86 1.0 2.0 0.00 0.00 0.00 88 1012.7
20260509093026 50 60 0.0 0.0 0.00 0.00 0.00 88 1012.8
20260509091533 49 60 0.0 2.0 0.00 0.00 0.00 88 1012.7
20260509090028 49 60 0.0 2.0 0.00 0.00 0.00 88 1012.8
20260509084526 49 26 0.0 0.0 0.00 0.00 0.00 88 1012.8
20260509083009 49 26 0.0 0.0 0.00 0.00 0.00 88 1013.0
20260509081510 49 26 0.0 0.0 0.00 0.00 0.00 88 1013.0
20260509080010 49 26 0.0 2.0 0.00 0.00 0.00 88 1013.3
20260509074510 49 26 0.0 0.0 0.00 0.00 0.00 87 1013.3
20260509073014 49 26 0.0 0.0 0.00 0.00 0.00 87 1013.3
20260509071514 49 26 0.0 0.0 0.00 0.00 0.00 85 1013.2
20260509070016 50 26 0.0 0.0 0.00 0.00 0.00 84 1013.1
20260509064528 50 36 0.0 0.0 0.00 0.00 0.00 84 1013.0
20260509063019 50 36 0.0 0.0 0.00 0.00 0.00 83 1013.2
20260509061534 50 36 0.0 0.0 0.00 0.00 0.00 84 1013.4
20260509060019 51 36 0.0 0.0 0.00 0.00 0.00 83 1013.5